ARG1815 SAVY-SABE

Flight info

Callsign ARG1815
Flight time 1h 22m
Altitude 35000
Route LOMUS2G LOMUS UT693 BCA UW22 VALOS VALOS9R
Aircraft B738/M-SDE2E3FGHIRWXY/LB1

Departure

Time 2026-04-26 19:24
Airport El Tehuelche Airport (SAVY)

Arrival

Time 2026-04-26 20:47
Airport Aeroparque Jorge Newbery (SABE)
Time Latitude Longitude Altitude Speed Heading
2026-04-26 18:18 -42.75550 -65.10076 440 ft 0 kts 58°
2026-04-26 19:18 -42.75550 -65.10075 443 ft 1 kts 64°
2026-04-26 19:19 -42.75567 -65.10042 440 ft 8 kts 138°
2026-04-26 19:19 -42.75626 -65.09987 433 ft 12 kts 149°
2026-04-26 19:19 -42.75709 -65.09913 438 ft 17 kts 134°
2026-04-26 19:19 -42.75682 -65.09758 444 ft 20 kts 58°
2026-04-26 19:20 -42.75598 -65.09575 440 ft 25 kts 58°
2026-04-26 19:20 -42.75567 -65.09509 438 ft 24 kts 58°
2026-04-26 19:20 -42.75425 -65.09200 432 ft 22 kts 58°
2026-04-26 19:20 -42.75339 -65.09053 439 ft 15 kts 53°
2026-04-26 19:21 -42.75327 -65.09002 443 ft 4 kts 122°
2026-04-26 19:21 -42.75346 -65.09015 435 ft 4 kts 259°
2026-04-26 19:21 -42.75353 -65.09044 434 ft 0 kts 238°
2026-04-26 19:22 -42.75362 -65.09064 439 ft 17 kts 238°
2026-04-26 19:23 -42.75469 -65.09296 437 ft 68 kts 238°
2026-04-26 19:23 -42.75838 -65.10112 442 ft 128 kts 245°
2026-04-26 19:23 -42.76093 -65.11295 520 ft 136 kts 262°
2026-04-26 19:23 -42.76202 -65.12999 607 ft 149 kts 267°
2026-04-26 19:24 -42.76211 -65.13956 732 ft 152 kts 268°
2026-04-26 19:24 -42.76064 -65.15426 878 ft 165 kts 274°
2026-04-26 19:24 -42.75964 -65.18817 1756 ft 184 kts 244°
2026-04-26 19:25 -42.76547 -65.20193 2844 ft 164 kts 219°
2026-04-26 19:25 -42.77086 -65.21013 3127 ft 185 kts 234°
2026-04-26 19:25 -42.77093 -65.23493 3831 ft 221 kts 283°
2026-04-26 19:25 -42.76183 -65.25307 4477 ft 241 kts 311°
2026-04-26 19:26 -42.74660 -65.26377 5143 ft 255 kts 345°
2026-04-26 19:26 -42.72892 -65.26226 5807 ft 260 kts 20°
2026-04-26 19:26 -42.71205 -65.25163 6099 ft 284 kts 30°
2026-04-26 19:26 -42.69417 -65.23793 6711 ft 296 kts 32°
2026-04-26 19:27 -42.67651 -65.22391 7520 ft 299 kts 33°
2026-04-26 19:27 -42.65833 -65.20912 8378 ft 302 kts 34°
2026-04-26 19:27 -42.64022 -65.19442 9242 ft 305 kts 34°
2026-04-26 19:27 -42.62185 -65.17970 10094 ft 308 kts 34°
2026-04-26 19:28 -42.60350 -65.16518 10848 ft 311 kts 33°
2026-04-26 19:28 -42.58458 -65.15037 11550 ft 319 kts 33°
2026-04-26 19:28 -42.56469 -65.13489 11823 ft 341 kts 33°
2026-04-26 19:28 -42.54348 -65.11849 12096 ft 361 kts 32°
2026-04-26 19:29 -42.52134 -65.10150 12704 ft 369 kts 32°
2026-04-26 19:29 -42.49885 -65.08432 13455 ft 373 kts 31°
2026-04-26 19:29 -42.47611 -65.06701 14181 ft 377 kts 31°
2026-04-26 19:29 -42.45311 -65.04953 14811 ft 382 kts 32°
2026-04-26 19:30 -42.42978 -65.03180 15408 ft 388 kts 32°
2026-04-26 19:30 -42.40598 -65.01371 15974 ft 395 kts 33°
2026-04-26 19:30 -42.38182 -64.99537 16532 ft 402 kts 33°
2026-04-26 19:30 -42.36559 -64.98306 16910 ft 406 kts 33°
2026-04-26 19:31 -42.33235 -64.95787 17691 ft 414 kts 34°
2026-04-26 19:31 -42.30700 -64.93869 18257 ft 420 kts 34°
2026-04-26 19:31 -42.28131 -64.91927 18771 ft 426 kts 34°
2026-04-26 19:31 -42.25534 -64.89967 19281 ft 430 kts 34°
2026-04-26 19:32 -42.22909 -64.87988 19787 ft 435 kts 34°
2026-04-26 19:32 -42.20253 -64.85988 20294 ft 440 kts 34°
2026-04-26 19:32 -42.17561 -64.83963 20777 ft 445 kts 34°
2026-04-26 19:32 -42.14846 -64.81922 21251 ft 450 kts 34°
2026-04-26 19:33 -42.12100 -64.79860 21727 ft 455 kts 35°
2026-04-26 19:33 -42.09322 -64.77776 22181 ft 460 kts 35°
2026-04-26 19:33 -42.06513 -64.75671 22623 ft 465 kts 35°
2026-04-26 19:33 -42.03670 -64.73543 23051 ft 471 kts 35°
2026-04-26 19:34 -42.00788 -64.71387 23476 ft 476 kts 35°
2026-04-26 19:34 -41.97880 -64.69215 23862 ft 481 kts 35°
2026-04-26 19:34 -41.94940 -64.67023 24224 ft 485 kts 35°
2026-04-26 19:34 -41.91979 -64.64818 24630 ft 488 kts 35°
2026-04-26 19:35 -41.89000 -64.62602 25017 ft 491 kts 35°
2026-04-26 19:35 -41.85993 -64.60366 25384 ft 495 kts 34°
2026-04-26 19:35 -41.82969 -64.58121 25755 ft 498 kts 34°
2026-04-26 19:35 -41.79929 -64.55866 26122 ft 501 kts 34°
2026-04-26 19:36 -41.76869 -64.53598 26489 ft 505 kts 34°
2026-04-26 19:36 -41.74829 -64.52088 26724 ft 507 kts 34°
2026-04-26 19:36 -41.70686 -64.49024 27189 ft 511 kts 34°
2026-04-26 19:36 -41.67558 -64.46714 27534 ft 514 kts 34°
2026-04-26 19:37 -41.64420 -64.44398 27876 ft 517 kts 34°
2026-04-26 19:37 -41.61265 -64.42073 28203 ft 520 kts 34°
2026-04-26 19:37 -41.58090 -64.39736 28523 ft 523 kts 34°
2026-04-26 19:37 -41.54896 -64.37387 28831 ft 526 kts 34°
2026-04-26 19:38 -41.51685 -64.35029 29135 ft 529 kts 33°
2026-04-26 19:38 -41.48454 -64.32658 29434 ft 531 kts 33°
2026-04-26 19:38 -41.45205 -64.30278 29723 ft 534 kts 33°
2026-04-26 19:38 -41.41942 -64.27889 30005 ft 537 kts 33°
2026-04-26 19:39 -41.38659 -64.25489 30264 ft 540 kts 33°
2026-04-26 19:39 -41.35364 -64.23083 30515 ft 541 kts 33°
2026-04-26 19:39 -41.32053 -64.20669 30794 ft 542 kts 33°
2026-04-26 19:39 -41.28744 -64.18259 31110 ft 542 kts 33°
2026-04-26 19:40 -41.25440 -64.15855 31496 ft 540 kts 33°
2026-04-26 19:40 -41.22153 -64.13466 31896 ft 538 kts 33°
2026-04-26 19:40 -41.18876 -64.11086 32278 ft 536 kts 33°
2026-04-26 19:40 -41.15628 -64.08675 32612 ft 533 kts 37°
2026-04-26 19:41 -41.12644 -64.05814 32911 ft 525 kts 46°
2026-04-26 19:41 -41.10038 -64.02570 33254 ft 517 kts 54°
2026-04-26 19:41 -41.07748 -63.98899 33590 ft 504 kts 64°
2026-04-26 19:41 -41.06461 -63.96341 33816 ft 501 kts 65°
2026-04-26 19:42 -41.03954 -63.91221 34217 ft 500 kts 65°
2026-04-26 19:42 -41.02029 -63.87315 34470 ft 500 kts 65°
2026-04-26 19:42 -41.00108 -63.83479 34702 ft 500 kts 64°
2026-04-26 19:42 -40.98169 -63.79655 34926 ft 500 kts 64°
2026-04-26 19:43 -40.96222 -63.75836 35087 ft 502 kts 63°
2026-04-26 19:43 -40.94263 -63.71997 35068 ft 505 kts 63°
2026-04-26 19:43 -40.92059 -63.68329 35061 ft 514 kts 52°
2026-04-26 19:43 -40.89435 -63.65081 35065 ft 519 kts 43°
2026-04-26 19:44 -40.83357 -63.60076 35062 ft 518 kts 31°
2026-04-26 19:44 -40.76967 -63.55625 35051 ft 520 kts 31°
2026-04-26 19:45 -40.70565 -63.51134 35048 ft 521 kts 31°
2026-04-26 19:45 -40.64137 -63.46546 35045 ft 522 kts 31°
2026-04-26 19:46 -40.57753 -63.41966 35038 ft 523 kts 31°
2026-04-26 19:46 -40.51392 -63.37412 35032 ft 524 kts 31°
2026-04-26 19:47 -40.46033 -63.33588 35029 ft 524 kts 31°
2026-04-26 19:47 -40.38542 -63.28258 35012 ft 523 kts 31°
2026-04-26 19:48 -40.32145 -63.23717 35007 ft 523 kts 31°
2026-04-26 19:48 -40.25751 -63.19188 35015 ft 522 kts 31°
2026-04-26 19:49 -40.19366 -63.14675 35005 ft 521 kts 30°
2026-04-26 19:49 -40.12994 -63.10181 35001 ft 520 kts 30°
2026-04-26 19:50 -40.06626 -63.05699 35002 ft 519 kts 30°
2026-04-26 19:50 -40.00272 -63.01236 34996 ft 519 kts 30°
2026-04-26 19:51 -39.93917 -62.96782 34991 ft 518 kts 30°
2026-04-26 19:51 -39.87569 -62.92343 34991 ft 518 kts 30°
2026-04-26 19:52 -39.81226 -62.87916 34986 ft 517 kts 30°
2026-04-26 19:52 -39.74883 -62.83499 34983 ft 517 kts 30°
2026-04-26 19:53 -39.68579 -62.79118 34983 ft 518 kts 29°
2026-04-26 19:53 -39.62223 -62.74709 34976 ft 518 kts 29°
2026-04-26 19:54 -39.55867 -62.70309 34981 ft 518 kts 29°
2026-04-26 19:54 -39.49503 -62.65919 34975 ft 518 kts 28°
2026-04-26 19:55 -39.43075 -62.61674 34974 ft 519 kts 27°
2026-04-26 19:55 -39.36571 -62.57475 34971 ft 519 kts 27°
2026-04-26 19:56 -39.30164 -62.53325 34974 ft 519 kts 27°
2026-04-26 19:56 -39.23717 -62.49136 34972 ft 519 kts 27°
2026-04-26 19:57 -39.17269 -62.44948 34973 ft 519 kts 27°
2026-04-26 19:57 -39.10823 -62.40770 34972 ft 519 kts 26°
2026-04-26 19:58 -39.06857 -62.38206 34970 ft 518 kts 26°
2026-04-26 19:58 -39.00458 -62.34075 34974 ft 518 kts 26°
2026-04-26 19:59 -38.94018 -62.29926 34971 ft 517 kts 26°
2026-04-26 19:59 -38.87587 -62.25790 34969 ft 517 kts 26°
2026-04-26 20:00 -38.81168 -62.21671 34968 ft 516 kts 26°
2026-04-26 20:00 -38.74742 -62.17555 34971 ft 516 kts 26°
2026-04-26 20:01 -38.68561 -62.12916 34969 ft 515 kts 35°
2026-04-26 20:01 -38.62747 -62.07555 34967 ft 515 kts 36°
2026-04-26 20:02 -38.56944 -62.02168 34972 ft 515 kts 36°
2026-04-26 20:02 -38.53049 -61.98608 34971 ft 515 kts 35°
2026-04-26 20:03 -38.45268 -61.91579 34968 ft 515 kts 35°
2026-04-26 20:03 -38.39416 -61.86314 34961 ft 515 kts 34°
2026-04-26 20:04 -38.33566 -61.81058 34961 ft 515 kts 34°
2026-04-26 20:04 -38.27708 -61.75801 34959 ft 515 kts 34°
2026-04-26 20:05 -38.22796 -61.71401 34957 ft 515 kts 34°
2026-04-26 20:05 -38.16927 -61.66154 34950 ft 516 kts 34°
2026-04-26 20:06 -38.11057 -61.60915 34938 ft 516 kts 34°
2026-04-26 20:06 -38.05216 -61.55714 34945 ft 516 kts 33°
2026-04-26 20:07 -37.99338 -61.50488 34930 ft 516 kts 33°
2026-04-26 20:07 -37.93450 -61.45267 34933 ft 516 kts 33°
2026-04-26 20:08 -37.87564 -61.40062 34929 ft 516 kts 33°
2026-04-26 20:08 -37.81670 -61.34857 34937 ft 516 kts 33°
2026-04-26 20:09 -37.75773 -61.29659 34939 ft 517 kts 33°
2026-04-26 20:09 -37.69873 -61.24467 34938 ft 517 kts 32°
2026-04-26 20:10 -37.63979 -61.19291 34938 ft 517 kts 32°
2026-04-26 20:10 -37.58073 -61.14115 34937 ft 517 kts 32°
2026-04-26 20:11 -37.52168 -61.08950 34935 ft 517 kts 32°
2026-04-26 20:12 -37.43306 -61.01218 34935 ft 517 kts 32°
2026-04-26 20:12 -37.37402 -60.96078 34935 ft 517 kts 31°
2026-04-26 20:13 -37.31485 -60.90938 34937 ft 517 kts 31°
2026-04-26 20:13 -37.25573 -60.85813 34939 ft 517 kts 31°
2026-04-26 20:14 -37.19654 -60.80690 34934 ft 517 kts 31°
2026-04-26 20:14 -37.13735 -60.75578 34937 ft 517 kts 31°
2026-04-26 20:15 -37.07811 -60.70472 34931 ft 517 kts 30°
2026-04-26 20:15 -37.01884 -60.65373 34933 ft 517 kts 30°
2026-04-26 20:16 -36.95980 -60.60303 34930 ft 517 kts 30°
2026-04-26 20:16 -36.90390 -60.55511 34928 ft 517 kts 30°
2026-04-26 20:17 -36.84453 -60.50431 34932 ft 517 kts 30°
2026-04-26 20:17 -36.78507 -60.45353 34931 ft 518 kts 30°
2026-04-26 20:18 -36.72566 -60.40287 34929 ft 518 kts 29°
2026-04-26 20:18 -36.66611 -60.35248 34929 ft 518 kts 29°
2026-04-26 20:19 -36.60647 -60.30222 34930 ft 518 kts 28°
2026-04-26 20:19 -36.54684 -60.25197 34921 ft 518 kts 28°
2026-04-26 20:20 -36.48716 -60.20179 34929 ft 518 kts 28°
2026-04-26 20:20 -36.42741 -60.15168 34925 ft 518 kts 28°
2026-04-26 20:21 -36.36772 -60.10171 34924 ft 518 kts 28°
2026-04-26 20:21 -36.30802 -60.05180 34921 ft 518 kts 27°
2026-04-26 20:22 -36.24830 -60.00196 34917 ft 518 kts 27°
2026-04-26 20:22 -36.18851 -59.95216 34919 ft 518 kts 27°
2026-04-26 20:23 -36.12874 -59.90246 34922 ft 518 kts 27°
2026-04-26 20:23 -36.06899 -59.85287 34913 ft 518 kts 27°
2026-04-26 20:24 -36.00914 -59.80331 34908 ft 517 kts 26°
2026-04-26 20:24 -35.94940 -59.75390 34905 ft 514 kts 26°
2026-04-26 20:24 -35.92012 -59.72964 34891 ft 500 kts 26°
2026-04-26 20:25 -35.89173 -59.70608 34890 ft 484 kts 26°
2026-04-26 20:25 -35.83644 -59.66051 34909 ft 477 kts 25°
2026-04-26 20:25 -35.80895 -59.63795 34605 ft 472 kts 25°
2026-04-26 20:26 -35.78162 -59.61557 33724 ft 476 kts 24°
2026-04-26 20:26 -35.75369 -59.59278 32403 ft 487 kts 24°
2026-04-26 20:26 -35.72495 -59.56938 30908 ft 504 kts 25°
2026-04-26 20:26 -35.69532 -59.54523 29373 ft 517 kts 25°
2026-04-26 20:27 -35.66510 -59.52048 27922 ft 525 kts 25°
2026-04-26 20:27 -35.63481 -59.49557 26927 ft 521 kts 25°
2026-04-26 20:27 -35.60513 -59.47105 26333 ft 508 kts 25°
2026-04-26 20:27 -35.57614 -59.44716 25885 ft 497 kts 24°
2026-04-26 20:28 -35.54744 -59.42374 25417 ft 493 kts 24°
2026-04-26 20:28 -35.51897 -59.40058 24953 ft 489 kts 24°
2026-04-26 20:28 -35.49141 -59.37626 24566 ft 487 kts 31°
2026-04-26 20:28 -35.46655 -59.34760 23633 ft 498 kts 40°
2026-04-26 20:29 -35.44463 -59.31386 22403 ft 508 kts 47°
2026-04-26 20:29 -35.42352 -59.27949 21686 ft 499 kts 49°
2026-04-26 20:29 -35.40293 -59.24596 21110 ft 486 kts 49°
2026-04-26 20:29 -35.38284 -59.21340 20497 ft 475 kts 49°
2026-04-26 20:30 -35.36296 -59.18148 19827 ft 466 kts 49°
2026-04-26 20:30 -35.34339 -59.15032 19188 ft 457 kts 50°
2026-04-26 20:30 -35.32419 -59.11993 18576 ft 448 kts 50°
2026-04-26 20:30 -35.30603 -59.09128 17954 ft 439 kts 51°
2026-04-26 20:31 -35.28701 -59.06125 17218 ft 431 kts 51°
2026-04-26 20:31 -35.26878 -59.03248 16484 ft 424 kts 51°
2026-04-26 20:31 -35.25079 -59.00410 15764 ft 418 kts 51°
2026-04-26 20:31 -35.23310 -58.97625 15077 ft 411 kts 51°
2026-04-26 20:32 -35.21576 -58.94895 14440 ft 403 kts 51°
2026-04-26 20:32 -35.19870 -58.92212 13825 ft 396 kts 51°
2026-04-26 20:32 -35.18193 -58.89577 13143 ft 389 kts 51°
2026-04-26 20:32 -35.16540 -58.86981 12342 ft 386 kts 51°
2026-04-26 20:33 -35.14895 -58.84400 11526 ft 384 kts 51°
2026-04-26 20:33 -35.13284 -58.81875 10778 ft 382 kts 51°
2026-04-26 20:33 -35.11689 -58.79375 10547 ft 365 kts 51°
2026-04-26 20:33 -35.10141 -58.76949 10288 ft 358 kts 51°
2026-04-26 20:34 -35.08625 -58.74576 10154 ft 350 kts 51°
2026-04-26 20:34 -35.07146 -58.72263 10010 ft 342 kts 51°
2026-04-26 20:34 -35.05711 -58.70021 9851 ft 328 kts 51°
2026-04-26 20:34 -35.04306 -58.67826 9540 ft 328 kts 51°
2026-04-26 20:35 -35.02898 -58.65629 9248 ft 328 kts 51°
2026-04-26 20:35 -35.01493 -58.63438 8927 ft 328 kts 51°
2026-04-26 20:35 -35.00089 -58.61249 8636 ft 327 kts 51°
2026-04-26 20:35 -34.98688 -58.59066 8331 ft 327 kts 51°
2026-04-26 20:36 -34.97292 -58.56894 8026 ft 324 kts 51°
2026-04-26 20:36 -34.95905 -58.54734 7716 ft 322 kts 51°
2026-04-26 20:36 -34.94531 -58.52597 7432 ft 320 kts 51°
2026-04-26 20:36 -34.93163 -58.50471 7147 ft 317 kts 51°
2026-04-26 20:37 -34.91804 -58.48359 6853 ft 316 kts 51°
2026-04-26 20:37 -34.90453 -58.46261 6557 ft 314 kts 51°
2026-04-26 20:37 -34.89107 -58.44172 6265 ft 312 kts 51°
2026-04-26 20:37 -34.88647 -58.43459 6159 ft 312 kts 51°
2026-04-26 20:38 -34.87311 -58.41386 5847 ft 310 kts 51°
2026-04-26 20:38 -34.85979 -58.39321 5548 ft 309 kts 51°
2026-04-26 20:38 -34.84656 -58.37272 5244 ft 308 kts 51°
2026-04-26 20:38 -34.83327 -58.35215 4836 ft 310 kts 50°
2026-04-26 20:39 -34.81999 -58.33160 4580 ft 307 kts 50°
2026-04-26 20:39 -34.81128 -58.31812 4385 ft 305 kts 50°
2026-04-26 20:39 -34.79379 -58.29109 4002 ft 302 kts 50°
2026-04-26 20:39 -34.78095 -58.27124 3718 ft 293 kts 50°
2026-04-26 20:40 -34.76858 -58.25214 3467 ft 283 kts 50°
2026-04-26 20:40 -34.75687 -58.23407 3373 ft 266 kts 50°
2026-04-26 20:40 -34.74568 -58.21681 3264 ft 250 kts 50°
2026-04-26 20:40 -34.73524 -58.20071 3160 ft 235 kts 49°
2026-04-26 20:41 -34.72465 -58.18576 3011 ft 230 kts 33°
2026-04-26 20:41 -34.71056 -58.17849 2796 ft 215 kts 356°
2026-04-26 20:41 -34.69665 -58.18124 2575 ft 196 kts 326°
2026-04-26 20:41 -34.68570 -58.18994 2518 ft 184 kts 306°
2026-04-26 20:42 -34.67800 -58.20184 2489 ft 177 kts 295°
2026-04-26 20:42 -34.67114 -58.21417 2482 ft 175 kts 294°
2026-04-26 20:42 -34.66442 -58.22635 2479 ft 173 kts 294°
2026-04-26 20:42 -34.65770 -58.23857 2452 ft 175 kts 294°
2026-04-26 20:43 -34.65089 -58.25110 2235 ft 178 kts 294°
2026-04-26 20:43 -34.64414 -58.26351 2018 ft 174 kts 294°
2026-04-26 20:43 -34.63758 -58.27534 1861 ft 164 kts 294°
2026-04-26 20:43 -34.63115 -58.28694 1753 ft 167 kts 294°
2026-04-26 20:44 -34.62466 -58.29856 1714 ft 165 kts 294°
2026-04-26 20:44 -34.61837 -58.30979 1678 ft 154 kts 294°
2026-04-26 20:44 -34.61261 -58.32006 1685 ft 143 kts 294°
2026-04-26 20:44 -34.60709 -58.32996 1571 ft 139 kts 294°
2026-04-26 20:45 -34.60173 -58.33956 1378 ft 135 kts 292°
2026-04-26 20:45 -34.59648 -58.34899 1200 ft 136 kts 292°
2026-04-26 20:45 -34.59113 -58.35860 1025 ft 138 kts 292°
2026-04-26 20:45 -34.58757 -58.36501 901 ft 139 kts 294°
2026-04-26 20:46 -34.58207 -58.37479 741 ft 140 kts 296°
2026-04-26 20:46 -34.57668 -58.38464 538 ft 142 kts 301°
2026-04-26 20:46 -34.57095 -58.39483 321 ft 146 kts 301°
2026-04-26 20:46 -34.56529 -58.40496 98 ft 147 kts 303°
2026-04-26 20:47 -34.55978 -58.41480 24 ft 120 kts 303°
2026-04-26 20:47 -34.55754 -58.41884 24 ft 58 kts 304°
2026-04-26 20:47 -34.55525 -58.42295 27 ft 39 kts 304°
2026-04-26 20:47 -34.55427 -58.42472 27 ft 10 kts 304°
2026-04-26 20:48 -34.55385 -58.42497 25 ft 5 kts
2026-04-26 20:48 -34.55363 -58.42467 28 ft 5 kts 72°
2026-04-26 20:48 -34.55365 -58.42424 24 ft 6 kts 97°
2026-04-26 20:48 -34.55377 -58.42366 28 ft 8 kts 118°
2026-04-26 20:49 -34.55420 -58.42294 27 ft 11 kts 127°
2026-04-26 20:49 -34.55488 -58.42185 25 ft 20 kts 127°
2026-04-26 20:49 -34.55563 -58.42066 27 ft 21 kts 127°
2026-04-26 20:49 -34.55642 -58.41926 28 ft 20 kts 124°
2026-04-26 20:50 -34.55719 -58.41786 25 ft 19 kts 124°
2026-04-26 20:50 -34.55781 -58.41643 27 ft 19 kts 116°
2026-04-26 20:50 -34.55839 -58.41504 27 ft 18 kts 117°
2026-04-26 20:50 -34.55891 -58.41382 24 ft 12 kts 117°
2026-04-26 20:51 -34.55883 -58.41296 28 ft 12 kts 37°
2026-04-26 20:51 -34.55827 -58.41306 24 ft 7 kts 312°
2026-04-26 20:51 -34.55799 -58.41308 24 ft 4 kts 36°
2026-04-26 20:51 -34.55780 -58.41289 24 ft 1 kts 37°
2026-04-26 20:52 -34.55779 -58.41288 24 ft 0 kts 36°